RH
64 65 64 51 39 27 29 33 26 27 24 34 35 31 22 23 27 23 21 23 22 21 17 19 38 81 90 90 92 91 91 87 80 79 81 82 78 78 78 80 81 79 80 83
73 78 47 43 46 36 29 31 28 26 30 33 31 28 23 26 27 26 20 18 21 19 18 19 22 83 90 89 90 92 88 84 79 72 78 77 77 78 76 80 82 80 82 84
74 70 50 40 50 42 35 27 31 28 35 35 32 32 26 24 25 23 20 17 16 16 16 17 22 75 89 90 89 92 86 81 76 71 78 82 82 82 82 84 83 82 82 85
70 59 66 49 43 38 42 33 29 34 34 34 36 46 34 29 26 24 22 21 18 16 17 16 20 60 89 90 88 89 84 79 74 73 70 72 72 79 79 82 81 82 85 85
73 81 71 63 52 37 41 34 31 36 40 42 38 39 34 35 31 26 22 22 18 18 20 19 20 24 72 87 92 90 83 78 74 68 67 69 74 76 79 81 83 86 88 86
67 65 65 56 46 36 48 52 54 60 53 75 38 37 44 33 28 25 22 22 23 22 22 21 23 37 68 89 89 90 84 79 76 71 70 68 72 79 81 84 85 87 87 87
78 70 65 53 54 48 51 48 93 93 91 73 51 49 34 34 31 27 24 22 19 19 21 22 32 61 84 88 88 92 86 83 79 73 72 70 70 72 73 78 80 87 89 87
93 95 68 61 60 56 49 44 83 91 92 73 47 54 45 31 25 29 27 24 24 23 23 22 40 70 88 89 87 91 88 86 80 76 74 71 71 69 72 74 78 82 84 83
82 80 70 62 55 45 61 59 53 76 94 79 56 47 37 34 29 31 31 30 27 26 26 24 60 89 92 85 87 91 88 86 82 77 75 75 72 74 75 78 78 82 84 82
87 89 69 63 54 52 45 42 63 79 81 82 69 60 44 38 32 30 30 28 30 30 30 31 76 98 93 84 85 91 88 88 83 79 77 76 73 74 75 79 80 81 83 84
100 81 80 67 68 62 62 58 59 58 68 62 75 41 45 34 32 31 26 27 27 33 39 43 88 98 89 82 88 93 93 91 88 83 80 81 79 76 77 77 79 79 83 85
80 98 92 80 63 62 51 50 49 56 71 82 72 43 42 46 43 41 32 28 38 46 54 66 98 94 88 87 87 93 92 93 88 84 82 81 79 79 79 80 81 84 83 86
80 98 96 91 72 66 58 51 40 50 56 74 63 43 33 48 50 51 46 47 61 73 82 91 99 94 89 90 93 91 94 94 92 90 86 86 83 80 80 80 83 84 85 87
98 88 96 69 55 67 75 58 46 48 70 46 47 45 36 43 52 56 72 77 75 84 87 92 95 99 92 90 94 97 96 95 94 90 87 86 85 80 80 81 83 85 85 89
97 96 97 92 81 60 65 68 68 60 45 60 44 58 35 44 50 56 68 80 81 89 86 89 94 97 99 96 98 96 96 97 93 92 90 88 85 82 82 85 87 88 88 88
98 96 96 96 90 92 94 91 73 70 55 58 66 59 49 57 53 53 54 66 73 77 81 85 89 95 98 98 99 99 99 97 92 92 91 88 87 86 85 87 88 88 90 90
97 96 96 96 95 96 97 90 91 69 54 50 64 42 50 51 49 52 51 49 48 52 66 76 84 89 94 97 96 97 98 97 95 93 93 90 88 86 84 84 87 89 90 90
96 95 94 97 93 96 95 56 63 83 87 62 52 43 47 45 46 47 49 48 46 45 48 50 61 80 89 94 97 96 97 96 95 94 92 90 89 87 88 88 85 88 88 88
80 94 99 93 95 73 86 95 97 95 82 63 54 45 41 44 48 50 49 50 47 48 48 52 54 58 80 93 96 96 98 97 96 95 92 90 87 89 90 88 89 87 89 92
79 78 91 98 86 87 58 98 74 90 92 59 58 51 47 47 46 39 50 50 51 52 53 52 58 64 75 90 96 98 98 97 96 94 92 90 89 85 85 85 90 95 87 91
98 98 95 98 94 78 49 58 82 79 90 68 71 60 52 52 40 46 55 55 55 58 62 63 64 61 68 90 97 98 98 98 94 94 94 92 90 88 83 86 94 91 93 94
91 96 98 96 97 80 50 55 38 54 73 58 61 66 54 57 59 55 47 46 49 55 67 68 64 66 71 90 96 96 97 93 94 95 95 94 93 90 90 89 94 95 93 94
88 82 89 78 69 46 53 47 48 54 69 58 58 68 53 47 48 53 43 42 48 53 65 72 69 67 77 90 94 91 91 95 96 96 95 95 94 94 93 90 93 95 94 93
77 64 81 77 59 57 50 51 53 47 46 53 59 63 62 58 43 37 49 47 44 56 58 82 88 88 83 90 94 94 94 95 96 96 96 95 94 95 95 93 90 91 94 94
75 75 78 78 56 55 49 48 45 44 49 48 49 51 56 58 57 48 49 59 55 54 82 90 88 87 86 88 88 92 95 95 96 96 97 96 94 94 94 91 91 89 86 84
78 73 78 74 54 51 42 43 45 46 41 40 45 50 56 56 55 58 61 60 57 58 84 86 84 88 88 87 89 92 94 95 95 97 97 96 95 94 93 95 99 92 88 87
Wind_Speed
4 6 18 16 17 6 7 5 7 4 5 5 8 11 17 12 5 10 12 11 11 14 10 9 10 14 14 14 16 16 15 14 11 6 5 4 4 4 3 3 4 4 4 3
6 24 11 8 7 12 6 7 7 5 3 5 3 13 15 7 9 11 18 15 14 10 8 8 9 13 16 18 18 17 17 16 13 9 4 3 4 2 2 3 4 4 4 4
26 4 15 14 10 16 18 19 5 3 2 3 5 9 10 8 7 7 13 16 12 15 14 9 9 13 15 19 20 18 17 17 14 12 8 5 5 4 3 2 2 3 4 4
21 24 14 12 20 17 19 8 6 4 1 5 2 9 7 6 10 7 11 13 18 18 10 8 12 11 16 17 17 17 17 17 14 16 12 11 6 5 4 4 3 4 4 4
11 14 16 14 14 15 7 9 14 7 4 2 4 3 6 4 8 15 14 16 17 14 11 13 15 16 17 16 18 17 17 17 17 17 15 11 8 4 4 4 7 4 4 4
16 3 19 13 6 16 9 9 7 5 4 5 10 10 7 11 11 10 8 8 10 9 9 10 8 8 12 13 15 16 18 17 16 16 15 15 13 9 7 6 6 5 4 4
15 10 5 6 8 10 6 12 2 1 2 11 2 8 17 9 7 7 9 6 6 6 4 7 11 13 15 19 19 15 18 17 17 17 16 14 13 12 11 10 8 7 5 3
16 12 17 6 10 9 12 16 9 9 6 3 2 13 8 15 16 9 9 7 7 8 6 7 8 12 15 18 20 17 19 18 18 17 16 14 13 8 7 9 7 6 6 5
16 16 1 9 5 16 9 16 8 8 2 3 7 9 8 13 16 8 8 7 10 9 6 6 7 8 13 16 19 17 17 15 17 17 14 13 12 11 9 9 8 7 6 5
4 3 7 10 4 5 17 13 8 1 6 5 6 6 7 7 9 7 9 10 10 7 6 5 6 7 9 11 14 12 13 15 15 15 13 12 13 11 10 9 9 9 7 6
4 4 1 8 13 20 6 15 6 6 4 9 2 8 8 8 3 5 7 6 5 6 6 6 5 7 12 11 11 11 12 14 14 14 13 13 11 11 10 9 8 9 8 8
19 3 6 14 7 1 7 10 10 11 9 3 3 7 1 5 6 6 5 6 5 6 6 6 6 10 12 12 12 13 11 12 13 13 12 12 11 10 10 9 9 9 9 8
13 9 10 4 3 3 16 12 23 0 4 9 8 6 2 4 6 6 6 6 6 6 7 6 6 8 10 10 9 11 10 10 10 11 12 11 11 11 10 9 9 9 10 8
7 7 4 14 16 7 2 13 18 11 5 12 14 3 3 7 7 7 6 6 6 6 7 5 5 5 7 7 7 8 9 9 10 10 11 12 12 12 10 9 10 10 9 10
4 6 5 6 7 5 6 7 8 18 18 8 6 5 5 5 4 3 4 5 7 5 7 6 6 5 5 7 6 6 7 9 10 11 11 11 10 10 10 9 9 9 9 9
2 1 7 6 12 5 3 5 8 11 17 11 4 5 4 3 5 5 6 7 7 6 6 5 6 6 6 6 6 6 7 8 9 9 10 9 11 11 10 10 10 9 9 9
3 4 2 2 6 6 4 4 3 8 8 16 8 5 3 5 6 4 5 7 7 7 6 5 5 6 6 7 7 8 8 7 7 8 8 9 10 11 12 11 11 10 10 9
1 2 3 1 4 1 2 3 8 9 9 7 3 8 8 6 5 5 4 6 6 7 7 5 5 4 5 5 7 7 7 8 8 7 8 8 10 10 10 11 11 10 9 11
3 1 2 5 3 6 3 4 5 2 6 5 7 5 6 5 3 1 3 2 4 3 2 2 3 3 4 6 6 8 8 7 7 8 9 9 10 11 11 11 11 9 9 7
3 1 3 3 6 5 4 8 6 6 5 7 6 9 7 5 7 6 4 3 3 3 1 1 4 3 4 5 6 7 8 9 10 10 10 9 10 11 12 12 11 5 8 8
3 0 4 2 2 6 5 7 4 5 3 8 6 3 5 5 4 5 6 2 2 1 2 2 3 3 3 6 7 7 6 8 6 6 7 9 9 11 11 10 5 9 7 8
6 6 5 2 4 7 5 5 6 4 7 4 9 11 13 11 8 6 7 5 1 4 3 3 4 3 2 4 6 7 7 6 7 7 8 8 8 8 8 11 7 7 9 9
3 7 5 7 7 2 5 2 3 1 4 5 8 3 3 11 7 3 4 2 2 4 1 1 4 2 2 1 4 5 2 6 6 7 8 8 8 8 8 11 10 8 9 9
5 1 2 3 7 6 4 4 2 3 5 3 2 4 7 10 9 9 2 6 5 1 0 4 3 2 2 3 4 5 5 6 6 6 6 7 10 8 7 6 8 9 10 9
6 6 5 5 9 6 5 6 7 8 5 6 4 6 7 5 4 6 8 5 7 5 2 3 4 4 4 4 6 5 5 6 6 5 6 7 7 11 10 9 9 10 9 12
7 8 6 7 10 7 8 8 6 7 10 9 6 5 9 9 9 7 8 9 7 7 4 3 5 5 6 7 7 3 6 7 7 6 6 7 7 7 8 8 4 1 6 13
Wind_Direction
208 187 208 187 195 177 183 197 210 231 233 165 217 250 261 257 219 258 257 246 242 242 240 221 206 202 192 184 179 177 171 173 159 155 158 153 164 160 168 171 163 155 137 146
190 229 207 176 192 202 181 193 228 286 168 176 240 260 255 237 241 207 241 245 235 235 222 220 196 188 193 189 185 178 180 168 172 168 147 141 142 157 141 155 162 163 151 152
220 192 178 185 187 201 219 218 165 224 134 226 328 273 258 249 237 226 238 241 241 230 225 216 190 191 188 191 189 181 177 172 171 160 127 103 97 94 118 152 157 179 167 154
237 232 194 197 212 188 218 156 151 157 83 240 132 284 269 249 250 229 238 236 241 234 224 199 192 189 190 192 186 180 174 169 165 157 156 163 165 150 176 157 160 164 167 149
215 173 186 216 219 184 207 150 186 170 175 28 208 285 261 268 255 254 245 234 238 231 207 206 196 197 195 179 181 176 170 168 163 167 171 166 158 135 137 140 151 155 164 154
222 271 196 204 147 185 136 94 60 62 102 266 223 195 232 222 212 246 242 236 238 232 215 220 197 169 177 175 175 170 169 171 164 167 167 171 161 149 147 148 158 164 165 157
202 218 285 145 118 159 168 150 69 51 195 237 334 198 251 250 239 240 248 223 220 193 241 206 180 175 169 174 179 169 168 170 168 168 169 170 165 161 167 165 167 164 162 169
214 203 196 202 194 176 182 179 163 180 197 197 129 236 242 231 264 244 238 228 248 251 235 207 194 179 173 173 178 172 173 167 169 167 169 169 165 166 164 167 165 171 175 159
199 226 80 191 160 149 188 206 166 101 10 79 217 288 270 255 257 244 245 208 237 230 224 199 171 175 168 171 180 176 171 166 169 168 164 166 163 158 167 170 166 166 161 153
271 201 198 188 123 220 183 163 169 312 149 234 263 269 240 296 272 266 242 212 232 219 190 162 160 154 161 168 172 160 166 166 162 162 162 164 167 168 164 161 168 164 158 151
216 200 322 140 207 189 143 187 195 123 168 184 212 256 218 240 30 248 261 220 208 177 159 150 143 138 160 164 163 158 155 157 161 161 161 161 165 163 158 164 163 165 155 159
209 276 145 206 202 270 192 187 185 192 220 230 143 272 318 290 275 256 3 89 81 109 113 121 124 150 160 163 170 165 157 161 167 164 160 161 155 155 161 162 163 154 159 163
194 208 188 3 300 251 202 208 200 144 106 206 159 253 310 34 44 28 79 51 89 94 92 97 117 141 159 162 161 169 158 160 153 150 150 147 158 164 166 160 158 158 154 159
346 233 261 199 211 139 209 206 204 205 178 206 220 206 354 8 33 40 55 66 77 95 108 109 116 136 154 169 164 156 153 149 149 151 156 160 164 166 163 157 158 159 158 155
345 14 21 298 328 194 178 194 196 216 230 183 212 185 250 50 64 45 94 93 105 102 113 124 139 148 156 163 152 145 147 149 155 156 159 164 158 154 149 150 153 151 157 162
313 23 356 33 1 3 273 343 219 216 232 252 132 209 116 111 86 79 92 102 102 107 115 128 137 152 165 169 161 153 152 153 153 159 166 154 152 150 154 150 155 156 157 154
228 146 81 43 328 329 220 248 271 269 228 222 199 197 193 107 129 140 114 109 104 105 124 147 170 184 180 180 165 168 155 136 152 159 153 154 155 158 163 159 156 160 161 152
204 294 106 103 345 224 306 269 224 241 276 281 142 173 182 183 172 160 159 132 113 119 123 140 165 184 198 177 165 140 147 160 159 159 159 157 159 163 161 158 165 159 160 168
187 197 108 119 153 294 122 22 33 6 292 230 210 218 213 170 81 136 200 151 141 93 17 124 155 169 162 170 165 149 151 155 156 170 169 169 168 159 159 168 166 165 152 157
188 351 110 122 146 189 181 155 224 140 281 327 251 190 186 178 220 221 158 122 89 96 189 50 78 107 140 173 157 153 166 166 185 181 178 167 167 168 172 171 164 149 161 163
137 49 169 264 147 279 240 176 153 89 290 327 350 312 189 178 204 150 119 65 337 75 148 84 74 89 130 159 155 177 156 195 184 161 157 165 170 168 169 162 157 155 148 146
170 154 180 131 78 276 201 112 164 188 193 133 15 23 40 26 16 102 150 178 165 72 58 63 65 9 28 141 163 188 198 173 166 163 166 169 167 165 164 160 153 147 151 155
231 193 185 185 212 171 204 295 321 150 177 296 130 197 47 323 310 296 307 48 334 29 71 88 120 74 4 167 199 221 200 163 160 163 180 174 162 164 162 165 162 158 162 167
290 294 226 73 249 244 220 257 206 264 245 247 199 180 181 186 243 295 276 306 321 304 237 164 149 170 258 258 215 201 175 157 160 174 170 169 172 166 160 165 171 171 176 173
194 149 195 263 266 300 270 243 259 269 274 277 211 208 229 219 231 285 299 250 260 277 209 195 234 211 237 227 226 210 185 159 171 169 162 181 184 179 174 183 181 186 193 181
170 176 168 220 235 216 239 256 257 262 270 263 244 229 224 210 212 218 256 270 266 269 167 218 245 243 203 216 258 228 176 174 168 177 179 181 183 180 176 172 159 82 171 188